Regional Weather Roundup
Issued by NWS

Home | Current Version | Previous Version | Text Only | Print | Product List | Glossary On
Versions: 1 2 3 4 5 6 7 8 9 10 11 12 13 14 15 16 17 18 19 20 21 22 23 24 25 26 27 28 29 30 31 32 33 34 35 36 37 38 39 40 41 42 43 44 45 46 47 48 49 50
000
ASUS43 KMKX 191500
RWRWI

WISCONSIN REGIONAL WEATHER ROUNDUP
NATIONAL WEATHER SERVICE MILWAUKEE/SULLIVAN WI
1000 AM CDT SAT APR 19 2014

NOTE: "FAIR" INDICATES FEW OR NO CLOUDS BELOW 12,000 FEET WITH NO
SIGNIFICANT WEATHER AND/OR OBSTRUCTIONS TO VISIBILITY.

WIZ001-002-006>008-014>016-023>028-191600-
NORTHWEST WISCONSIN

CITY           SKY/WX    TMP DP  RH WIND       PRES   REMARKS
SUPERIOR ARPT  CLOUDY    34  32  93 E9        30.13F WCI  26
ASHLAND        CLOUDY    38  24  57 SE3       30.19F
HAYWARD        CLOUDY    39  23  52 S15G23    30.16R WCI  31
SIREN          CLOUDY    40  26  56 S17G31    30.11F WCI  32
RICE LAKE      PTSUNNY   42  25  50 SE24G31   30.18F
LADYSMITH      SUNNY     41  25  52 SE16G23   30.26S
EAU CLAIRE     NOT AVBL
MENOMONIE      MOSUNNY   44  26  49 E17       30.21F
NEW RICHMOND   CLOUDY    44  29  54 S16G25    30.15S
OSCEOLA        CLOUDY    44  31  61 SE16G22   30.16S
$$

WIZ003>005-009-010-017-018-191600-
NORTH CENTRAL WISCONSIN

CITY           SKY/WX    TMP DP  RH WIND       PRES   REMARKS
WOODRUFF       MOSUNNY   41  24  51 SE13G21   30.26S
RHINELANDER    SUNNY     38  22  52 SE12G18   30.30R WCI  30
EAGLE RIVER    SUNNY     38  19  47 S14G23    30.28S WCI  29
LAND O LAKES   SUNNY     37  21  53 SE14G22   30.29S WCI  28
PHILLIPS       PTSUNNY   38  23  55 SE12      30.24S WCI  30
TOMAHAWK       SUNNY     38  24  57 SE8       30.29S WCI  32
MEDFORD        SUNNY     38  26  63 SE10G22   30.28R WCI  31
MERRILL        SUNNY     39  26  60 CALM      30.31S
$$

WIZ029-030-035-036-043>047-191600-
CENTRAL WISCONSIN

CITY           SKY/WX    TMP DP  RH WIND       PRES   REMARKS
WAUSAU         SUNNY     41  25  53 SE16      30.29F
MOSINEE        SUNNY     39  28  65 SE16      30.32F WCI  30
MARSHFIELD     SUNNY     42  26  53 SE15      30.28F
STEVENS POINT  SUNNY     38  25  58 SE17      30.33F WCI  29
WAUPACA        SUNNY     43  28  56 SE13G20   30.38F
WAUTOMA        NOT AVBL
WISC RAPIDS    SUNNY     44  24  45 SE14G20   30.33F
CAMP DOUGLAS   NOT AVBL
$$

WIZ011>013-019>022-031-037>040-048>050-191600-
NORTHEAST WISCONSIN

CITY           SKY/WX    TMP DP  RH WIND       PRES   REMARKS
ANTIGO         SUNNY     35  27  72 SE22      30.32F WCI  24
STURGEON BAY   SUNNY     37  28  70 SE13      30.42F WCI  29
GREEN BAY      SUNNY     40  31  70 SE14      30.40F WCI  32
MANITOWOC      NOT AVBL
APPLETON       MOSUNNY   39  28  65 SE16      30.38F WCI  30
CLINTONVILLE   SUNNY     37  30  75 SE14      30.38F WCI  29
OSHKOSH        MOSUNNY   42  29  59 SE12      30.37F
$$

WIZ032>034-041-042-053>061-191600-
SOUTHWEST WISCONSIN

CITY           SKY/WX    TMP DP  RH WIND       PRES   REMARKS
LA CROSSE      MOSUNNY   50  26  39 SE16      30.27F
SPARTA         SUNNY     46  22  37 SE16G23   30.30F
VIROQUA        FAIR      44  27  51 SE18      30.28F
BOSCOBEL       MOSUNNY   50  25  37 SE8       30.32F
PRAIRIE DU CHI SUNNY     47  25  42 SE12G20   30.30F
PLATTEVILLE    FAIR      46  30  52 SE15      30.33R
$$

WIZ056-057-062-063-064-067-068-191600-
SOUTH CENTRAL WISCONSIN

CITY           SKY/WX    TMP DP  RH WIND       PRES   REMARKS
BARABOO/DELLS  MOSUNNY   44  25  47 E9        30.34S
LONE ROCK      NOT AVBL
WATERTOWN      SUNNY     43  31  62 E13       30.36F
MADISON        MOSUNNY   47  29  49 SE12G21   30.35F
MIDDLETON      FAIR      46  28  49 SE10      30.35S
MONROE         MOSUNNY   45  31  57 E13G18    30.32F
JANESVILLE     SUNNY    N/A N/A N/A SE17      30.35F
$$

WIZ051-052-058>065-066-070>072-191600-
SOUTHEAST WISCONSIN

CITY           SKY/WX    TMP DP  RH WIND       PRES   REMARKS
MILWAUKEE      PTSUNNY   41  32  70 E12       30.42F
WAUKESHA       SUNNY     39  30  70 E13       30.40S WCI  32
MILWAUKEE/TIMM SUNNY     39  28  65 E12G20    30.42F WCI  32
RACINE         SUNNY     39  32  76 SE12      30.43F WCI  32
BURLINGTON     SUNNY     42  32  69 SW10G16   30.39S
KENOSHA        SUNNY     41  33  73 E13       30.40F
FOND DU LAC    MOSUNNY   43  28  55 SE17      30.37F
SHEBOYGAN      MOSUNNY   38  29  70 SE12      30.41F WCI  30
WEST BEND      MOSUNNY   39  30  70 SE15      30.39F WCI  31
JUNEAU         SUNNY     41  28  59 E16       30.38S
$$

LSZ147-162-191600-
LAKE SUPERIOR

STATION/POSITION TIME  TEMP    WIND        PRES    WAVE
                       AIR SEA DIR/SP/G            HT/PER
                 (UTC) (F)     (DEG/KT/KT) (MB)    (FT/S)
DEVILS ISLAND    1400   33      90/ 21/ 22 1024.1F
PORT WING        1400   35      50/  4/  6 1022.0
SAXON HARBOR     1420          160/  9/ 18 1022.0F
$$

LMZ867-665-643>646-191600-
LAKE MICHIGAN

STATION/POSITION TIME  TEMP    WIND        PRES    WAVE
                       AIR SEA DIR/SP/G            HT/PER
                 (UTC) (F)     (DEG/KT/KT) (MB)    (FT/S)
NORTHPORT PIER   1400   33     110/ 11/ 14 1030.8F
SISTER BAY       1409   42     160/ 10/ 15   N/A
KEWAUNEE LAKESHO 1400   35     110/  8/ 10 1031.3F
SHEBOYGAN LAKESH 1400   35     110/  9/ 10 1031.4F
PORT WASHINGTON  1400   36      90/  8/ 11 1030.8
MILWAUKEE LAKESH 1400   36     100/  9/ 11   N/A
KENOSHA   LAKESH 1400   36      90/  8/ 13   N/A
$$

TC  - TEMPERATURE IN CELSIUS
VSB - VISIBILITY IN STATUTE MILES
WCI - WIND CHILL INDEX
HX  - HEAT INDEX




USA.gov is the U.S. government's official web portal to all federal, state and local government web resources and services.